カタログに戻る

STARLINK-30507

運用中通信VLEO
NORAD 57982·PAYLOAD·🇺🇸 United States

打ち上げ Sep 30, 2023 から Cape Canaveral Space Force Station

Loading…

次のパス (今後24時間)

TLE

最新Source: CelesTrak SupGP

元期: Sep 14, 2026, 21:31 UTC

1 57982C 23151U   26257.89701389 -.00066669  00000+0 -24138-2 0  2571
2 57982  43.0025   5.4275 0001698 264.3498  22.0612 15.27623594    18

AllMySatでSTARLINK-30507をリアルタイム追跡

Download on the App Store